Back to catalog

STARLINK-1433

AliveCommunicationsVLEO
NORAD 45711·PAYLOAD·🇺🇸 United States

Launched Jun 4, 2020 from Cape Canaveral Space Force Station

Loading…

Next Passes (next 24 hours)

TLE

FreshSource: CelesTrak SupGP

Epoch: Sep 14, 2026, 21:24 UTC

1 45711C 20035BG  26257.89215278  .00203670  00000+0  52796-3 0  2578
2 45711  53.0345 161.8459 0005129 118.2687 308.9964 15.94215546    16

Track STARLINK-1433 in real time with AllMySat

Download on the App Store